This demonstration page uses our WeatherBlox Daily Observations layout. Learn more.

Left ArrowRight Arrow

34.74481, -87.66753

Hourly Observations for February 8, 2021

Temp ( °F °C ) Dew Point ( °F °C ) Humidity (%) Winds ( mph kmh ) Pressure ( in mb ) Visibility ( mi km ) Precip ( " mm )
12:53 am 00:53 Cloudy 34 1.1 28 -2.2 79 79 Calm 30.22 1024 9 14 0.00 0.00
1:53 am 01:53 Cloudy 35 1.7 28 -2.2 76 76 Calm 30.22 1024 9 14 0.00 0.00
2:53 am 02:53 Cloudy 35 1.7 28 -2.2 76 76 ENE 5 7 30.22 1023 8 13 0.00 0.00
3:53 am 03:53 Cloudy 35 1.7 29 -1.7 78 78 ENE 5 7 30.22 1023 7 11 0.00 0.00
4:53 am 04:53 Cloudy 35 1.7 29 -1.7 78 78 ESE 6 9 30.22 1023 7 11 0.00 0.00
5:53 am 05:53 Cloudy 35 1.7 29 -1.7 78 78 E 5 7 30.23 1024 7 11 0.00 0.00
6:53 am 06:53 Cloudy with Haze 36 2.2 30 -1.1 79 79 E 5 7 30.24 1024 6 10 0.00 0.00
7:53 am 07:53 Cloudy with Haze 37 2.8 31 -0.6 79 79 NE 3 6 30.27 1025 4 6 0.00 0.00
8:53 am 08:53 Cloudy with Haze 38 3.3 31 -0.6 76 76 ENE 7 11 30.27 1025 6 10 0.00 0.00
9:53 am 09:53 Cloudy with Haze 39 3.9 32 0 76 76 E 8 13 30.27 1025 5 8 0.00 0.00
10:44 am 10:44 Cloudy 41 5 32 0 70 70 E 7 11 30.28 1025 7 11 0.00 0.00
10:53 am 10:53 Cloudy 41 5 33 0.6 73 73 ENE 3 6 30.26 1025 7 11 0.00 0.00
11:46 am 11:46 Mostly Cloudy 45 7.2 34 1.1 66 66 E 6 9 30.23 1024 8 13 0.00 0.00
11:53 am 11:53 Mostly Cloudy 44 6.7 34 1.1 68 68 VRB 3 6 30.22 1023 8 13 0.00 0.00
12:08 pm 12:08 Partly Cloudy 46 7.8 36 2.2 68 68 ESE 6 9 30.20 1023 9 14 0.00 0.00
12:53 pm 12:53 Sunny 48 8.9 35 1.7 61 61 VRB 3 6 30.15 1021 10 16 0.00 0.00
1:53 pm 13:53 Sunny 50 10 36 2.2 59 59 Calm 30.12 1020 10 16 0.00 0.00
2:53 pm 14:53 Sunny 53 11.7 37 2.8 55 55 E 6 9 30.11 1020 10 16 0.00 0.00
3:53 pm 15:53 Sunny 54 12.2 38 3.3 55 55 E 7 11 30.09 1019 10 16 0.00 0.00
4:53 pm 16:53 Sunny 53 11.7 38 3.3 57 57 ESE 8 13 30.09 1019 10 16 0.00 0.00
5:53 pm 17:53 Clear 49 9.4 37 2.8 64 64 Calm 30.10 1019 10 16 0.00 0.00
6:53 pm 18:53 Clear 45 7.2 36 2.2 71 71 NNE 3 6 30.10 1019 10 16 0.00 0.00
7:53 pm 19:53 Clear 43 6.1 35 1.7 74 74 SSE 3 6 30.11 1020 10 16 0.00 0.00
8:53 pm 20:53 Clear 40 4.4 35 1.7 83 83 SE 6 9 30.10 1019 10 16 0.00 0.00
9:53 pm 21:53 Clear 42 5.6 36 2.2 79 79 SE 3 6 30.11 1020 10 16 0.00 0.00
10:53 pm 22:53 Mostly Cloudy 41 5 35 1.7 79 79 Calm 30.11 1020 10 16 0.00 0.00
11:53 pm 23:53 Cloudy 44 6.7 37 2.8 76 76 Calm 30.11 1020 10 16 0.00 0.00

Powered by AerisWeather